Regional Weather Roundup
Issued by NWS Upton, NY

Current Version | Previous Version | Text Only | Print | Product List | Glossary On
Versions: 1 2 3 4 5 6 7 8 9 10 11 12 13 14 15 16 17 18 19 20 21 22 23 24 25 26 27 28 29 30 31 32 33 34 35 36 37 38 39 40 41 42 43 44 45 46 47 48 49 50
085 ASUS41 KOKX 240408 RWROKX REGIONAL WEATHER ROUNDUP NATIONAL WEATHER SERVICE NEW YORK NY 1100 PM EST THU FEB 23 2017 NOTE: "FAIR" INDICATES FEW OR NO CLOUDS BELOW 12,000 FEET WITH NO SIGNIFICANT WEATHER AND/OR OBSTRUCTIONS TO VISIBILITY. NYZ071-072-176-178-NJZ106-104-240500- NEW YORK CITY METRO AREA CITY SKY/WX TMP DP RH WIND PRES REMARKS Central Park CLEAR 64 52 64 SW5 29.91S Wall St Helipt NOT AVBL LaGuardia APRT PTCLDY 57 48 72 S6 29.89R Kennedy INTL PTCLDY 48 47 96 S8 29.91S Breezy Point N/A 45 N/A N/A S6 N/A Newark/Liberty MOCLDY 58 50 75 S5 29.89R Teterboro PTCLDY 56 49 77 CALM 29.88S $$ NYZ177-179-078>081-240500- LONG ISLAND NEW YORK CITY SKY/WX TMP DP RH WIND PRES REMARKS Jones Beach N/A 46 N/A N/A S9 N/A Matinecock PT NOT AVBL Farmingdale CLEAR 49 45 86 S6 29.92R MacArthur/ISP PTCLDY 48 46 93 SW6 29.92R Shirley PTCLDY 49 47 93 SW7 29.94R Westhampton CLEAR 49 45 86 SW8 29.94R Southampton NOT AVBL Bridgehampton NOT AVBL East Hampton N/A 49 46 90 SW10 29.92S Montauk N/A 50 47 89 W6 29.95R $$ NYZ052-065-067-240500- HUDSON VALLEY CITY SKY/WX TMP DP RH WIND PRES REMARKS White Plains PTCLDY 50 47 89 CALM 29.89R Newburgh MOCLDY 59 54 82 CALM 29.89R Montgomery CLOUDY 53 50 89 CALM 29.87R Poughkeepsie CLOUDY 50 46 86 VRB3 29.88R Albany MOCLDY 47 41 80 CALM 29.85R $$ NJZ001-105-106-008-010-013-015-019>022-104-240500- NEW JERSEY CITY SKY/WX TMP DP RH WIND PRES REMARKS Newark/Liberty MOCLDY 58 50 75 S5 29.89R Teterboro PTCLDY 56 49 77 CALM 29.88S Caldwell PTCLDY 51 46 83 CALM 29.89S Somerville PTCLDY 48 45 89 CALM 29.87R Linden NOT AVBL Sussex CLOUDY 51 48 89 CALM 29.89R Andover N/A 49 46 90 CALM 29.88S Trenton CLEAR 59 52 77 S9 29.89S Millville CLEAR 57 52 83 VRB5 29.92S Atlantic City CLEAR 57 50 77 S9 29.93R Wrightstown PTCLDY 57 51 79 S8 29.88S Toms River CLOUDY 57 51 80 SW9 29.92S Belmar MOCLDY 59 51 75 S9 29.92S $$ PAZ047>061-062-071-240500- EASTERN PENNSYLVANIA CITY SKY/WX TMP DP RH WIND PRES REMARKS Philadelphia PTCLDY 58 49 72 CALM 29.90S Allentown CLEAR 60 50 69 W5 29.88R Scranton CLOUDY 58 55 90 SE3 29.87R $$ CTZ002-004>006-009-010-012-RIZ004-006-007-MAZ004-011-015-240500- SOUTHERN NEW ENGLAND IN CT CITY SKY/WX TMP DP RH WIND PRES REMARKS Bradley INTL PTCLDY 48 47 96 S5 29.88R Hartford PTCLDY 51 49 92 S5 29.89S Danbury PTCLDY 46 43 89 CALM 29.90S Wtrbury/Oxford MOCLDY 50 45 81 CALM 29.92R Bridgeport PTCLDY 45 42 89 SE3 29.90S FOG Meriden MOCLDY 46 43 89 CALM 29.91R FOG New Haven PTCLDY 45 43 93 CALM 29.90S FOG Chester MOCLDY 52 48 87 SW7 29.90F Groton MOCLDY 44 42 93 CALM 29.91S Wilimantic PTCLDY 45 43 93 CALM 29.90S FOG IN RI CITY SKY/WX TMP DP RH WIND PRES REMARKS Providence CLEAR 49 46 90 S6 29.90R Block Island CLEAR 47 46 97 SW14 29.93R Westerly MOCLDY 50 46 86 SW5 29.93R IN MA CITY SKY/WX TMP DP RH WIND PRES REMARKS Boston PTCLDY 52 49 89 SW18 29.85S Worcester CLEAR 51 47 86 SW12 29.86S Westfield PTCLDY 45 45 100 CALM 29.86S FOG Provincetown PTCLDY 44 43 96 SW14 29.89S Nantucket CLEAR 44 42 93 SW8 29.94S FOG $$ ANZ330-335-338-340-345-350-353-355-240500- COASTAL MARINE OBSERVATIONS STATION/POSITION TIME SKY/WX TEMP WIND PRES VSBY WAVE AIR SEA DIR/SP/G HT/PER (UTC) (F) (DEG/KT/KT) (MB) (MI) (FT/S) NY HARB ENTRANCE 0250 47 44 200/ 10/ 12 1012.4 4/11 20 S FIRE ISLAND 0350 47 43 200/ 10/ 10 1013.4 5/12 GREAT SOUTH BAY NOT AVBL 23 SSW MONTAUK P 0250 47 46 1014.0 4/10 15 E BARNEGAT LI 0330 43 N/A 5/11 HUDSON CANYON 0250 49 1014.0 4/12 KINGS POINT 0336 54 40 1012.2 EXECUTION ROCKS NOT AVBL CENTRAL LI SOUND 0330 47 200/ 2/ 4 N/A 1 EASTERN LI SOUND NOT AVBL ROBBINS REEF 0336 55 160/ 9/ 9 1012.4 $$ >>>>>>>>>>>>>>>>>>>>>>>>>>>> KEY <<<<<<<<<<<<<<<<<<<<<<<<<<< > < > SKY/WX - Sky Condition/Present Weather < > TMP - Temperature in Fahrenheit < > DP - Dew Point in Fahrenheit < > RH - Relative Humidity in Percent < > WIND - Direction (from) and Speed in MPH < > PRES - Mean Sea Level Pressure (inches of Hg) < > WCI - Wind Chill Index < > VSB - VISIBILITY IN MILES < > HX - HEAT INDEX < > TC - TEMPERATURE IN CELSIUS < > VRB - VARIABLE WIND DIRECTION < > < >>>>>>>>>>>>>>>>>>>>>>>>>>>> KEY <<<<<<<<<<<<<<<<<<<<<<<<<<<

USA.gov is the U.S. government's official web portal to all federal, state and local government web resources and services.